Notices

What's New in latest Release from April 7th, 2021:

- Updated Glossary, including Speed of Maximum Gust, and Total Hourly Precipitation

- Updated national and regional climate services offices contacts and prices information

- Addition of station inventory lists for 1981-2010, 1971-2000, and 1961-1990 Normals.

If you haven't already, please take our survey and provide feedback about our website: https://eccc.sondage-survey.ca/f/LanguageSelection.aspx?s=442ca660-fcf1-47c0-95a9-59707d6fd709

Hourly Data Report for July 03, 2003

TORONTO CITY
ONTARIO

43°40'00.000" N
79°24'00.000" W
112.50 m
6158355
71508
XTO

Download Data

Hourly Data (July 2003)
Hourly Data Report for July 3, 2003
TIME
LST
Temp Definition
°C
Dew Point Definition
°C
Rel Hum Definition
%
Precip. Amount Definition
mm

Wind Dir Definition
10's deg

Wind Spd Definition
km/h
Visibility Definition
km
Stn Press Definition
kPa
Hmdx Definition


Wind Chill Definition


Weather Definition


00:00 20.4 16.3 77   LegendMM LegendMM LegendMM 99.63 25   LegendNANA
01:00 19.6 16.5 82   LegendMM LegendMM LegendMM 99.61     LegendNANA
02:00 19.5 16.7 84   LegendMM LegendMM LegendMM 99.60     LegendNANA
03:00 19.0 16.4 85   LegendMM LegendMM LegendMM 99.60     LegendNANA
04:00 18.3 16.0 86   LegendMM LegendMM LegendMM 99.58     LegendNANA
05:00 18.3 16.3 88   LegendMM LegendMM LegendMM 99.54     LegendNANA
06:00 19.8 16.5 81   LegendMM LegendMM LegendMM 99.58     LegendNANA
07:00 21.5 17.0 76   LegendMM LegendMM LegendMM 99.61 27   LegendNANA
08:00 23.0 18.7 77   LegendMM LegendMM LegendMM 99.65 30   LegendNANA
09:00 24.4 18.7 71   LegendMM LegendMM LegendMM 99.65 31   LegendNANA
10:00 25.6 19.4 69   LegendMM LegendMM LegendMM 99.62 33   LegendNANA
11:00 26.9 19.2 63   LegendMM LegendMM LegendMM 99.61 34   LegendNANA
12:00 28.1 18.3 55   LegendMM LegendMM LegendMM 99.58 34   LegendNANA
13:00 29.9 17.2 46   LegendMM LegendMM LegendMM 99.53 35   LegendNANA
14:00 30.6 18.0 47   LegendMM LegendMM LegendMM 99.49 37   LegendNANA
15:00 30.8 16.8 43   LegendMM LegendMM LegendMM 99.45 36   LegendNANA
16:00 30.0 16.3 44   LegendMM LegendMM LegendMM 99.42 35   LegendNANA
17:00 29.4 17.3 48   LegendMM LegendMM LegendMM 99.38 35   LegendNANA
18:00 27.8 16.5 50   LegendMM LegendMM LegendMM 99.38 33   LegendNANA
19:00 26.1 16.0 54   LegendMM LegendMM LegendMM 99.41 31   LegendNANA
20:00 24.9 16.1 58   LegendMM LegendMM LegendMM 99.41 30   LegendNANA
21:00 24.3 16.2 61   LegendMM LegendMM LegendMM 99.46 29   LegendNANA
22:00 23.5 16.3 64   LegendMM LegendMM LegendMM 99.46 28   LegendNANA
23:00 22.8 16.7 68   LegendMM LegendMM LegendMM 99.44 28   LegendNANA

Notes on Data Quality.

Legend

  • E = Estimated
  • M = Missing
  • NA = Not Available*
  • [empty] = Indicates an unobserved value
Date modified: